| time (UTC) | temp F | wind direction | speed knots | gust knots | rain 1hr in | rain 24hr in | rain mn in | humidity % | barometer mb |
| 20260906191126 | 76 | 209 | 2.6 | 5.2 | 0.00 | 0.00 | 0.00 | 74 | 1019.0 |
| 20260906190625 | 76 | 35 | 5.2 | 7.0 | 0.00 | 0.00 | 0.00 | 74 | 1019.0 |
| 20260906190114 | 76 | 61 | 2.6 | 7.8 | 0.00 | 0.00 | 0.00 | 75 | 1018.9 |
| 20260906185603 | 75 | 149 | 4.3 | 7.0 | 0.00 | 0.00 | 0.00 | 75 | 1018.7 |
| 20260906185052 | 75 | 35 | 7.0 | 7.8 | 0.00 | 0.00 | 0.00 | 75 | 1018.8 |
| 20260906184551 | 75 | 52 | 2.6 | 5.2 | 0.00 | 0.00 | 0.00 | 75 | 1018.9 |
| 20260906184049 | 75 | 191 | 2.6 | 5.2 | 0.00 | 0.00 | 0.00 | 76 | 1018.9 |
| 20260906183545 | 74 | 207 | 3.5 | 7.0 | 0.00 | 0.00 | 0.00 | 76 | 1018.9 |
| 20260906183044 | 74 | 60 | 4.3 | 6.1 | 0.00 | 0.00 | 0.00 | 76 | 1019.1 |
| 20260906182543 | 74 | 34 | 5.2 | 7.8 | 0.00 | 0.00 | 0.00 | 76 | 1019.0 |
| 20260906182042 | 74 | 211 | 7.0 | 8.7 | 0.00 | 0.00 | 0.00 | 77 | 1019.1 |
| 20260906181539 | 73 | 207 | 4.3 | 8.7 | 0.00 | 0.00 | 0.00 | 77 | 1018.9 |
| 20260906181037 | 73 | 36 | 7.0 | 9.6 | 0.00 | 0.00 | 0.00 | 78 | 1019.0 |
| 20260906180533 | 73 | 35 | 7.0 | 8.7 | 0.00 | 0.00 | 0.00 | 78 | 1019.0 |
| 20260906180031 | 73 | 31 | 7.0 | 9.6 | 0.00 | 0.00 | 0.00 | 78 | 1019.1 |
| 20260906175528 | 73 | 176 | 1.7 | 3.5 | 0.00 | 0.00 | 0.00 | 78 | 1019.4 |
| 20260906175027 | 73 | 186 | 3.5 | 8.7 | 0.00 | 0.00 | 0.00 | 78 | 1019.3 |
| 20260906174525 | 73 | 202 | 4.3 | 6.1 | 0.00 | 0.00 | 0.00 | 78 | 1019.3 |
| 20260906174025 | 72 | 193 | 2.6 | 3.5 | 0.00 | 0.00 | 0.00 | 79 | 1019.4 |
| 20260906173524 | 73 | 194 | 2.6 | 7.0 | 0.00 | 0.00 | 0.00 | 78 | 1019.4 |
| 20260906173023 | 73 | 28 | 7.8 | 9.6 | 0.00 | 0.00 | 0.00 | 78 | 1019.5 |
| 20260906172522 | 73 | 136 | 0.9 | 2.6 | 0.00 | 0.00 | 0.00 | 78 | 1019.5 |
| 20260906172021 | 73 | 199 | 3.5 | 6.1 | 0.00 | 0.00 | 0.00 | 78 | 1019.5 |
| 20260906171520 | 73 | 202 | 2.6 | 7.0 | 0.00 | 0.00 | 0.00 | 78 | 1019.2 |
| 20260906171019 | 72 | 93 | 2.6 | 5.2 | 0.00 | 0.00 | 0.00 | 79 | 1019.4 |
| 20260906170518 | 72 | 33 | 7.0 | 7.8 | 0.00 | 0.00 | 0.00 | 79 | 1019.5 |
| 20260906170006 | 72 | 89 | 2.6 | 5.2 | 0.00 | 0.00 | 0.00 | 80 | 1019.6 |
| 20260906165505 | 72 | 29 | 7.0 | 7.8 | 0.00 | 0.00 | 0.00 | 80 | 1019.7 |
| 20260906165004 | 72 | 64 | 2.6 | 7.8 | 0.00 | 0.00 | 0.00 | 79 | 1019.8 |
| 20260906164503 | 72 | 52 | 3.5 | 7.0 | 0.00 | 0.00 | 0.00 | 79 | 1019.7 |
| 20260906164002 | 72 | 73 | 1.7 | 5.2 | 0.00 | 0.00 | 0.00 | 79 | 1019.7 |
| 20260906163501 | 72 | 20 | 4.3 | 8.7 | 0.00 | 0.00 | 0.00 | 80 | 1019.6 |
| 20260906162950 | 71 | 28 | 6.1 | 7.0 | 0.00 | 0.00 | 0.00 | 81 | 1019.8 |
| 20260906162447 | 72 | 187 | 1.7 | 3.5 | 0.00 | 0.00 | 0.00 | 81 | 1019.9 |
| 20260906161946 | 71 | 199 | 1.7 | 4.3 | 0.00 | 0.00 | 0.00 | 81 | 1019.8 |
| 20260906161445 | 71 | 52 | 2.6 | 5.2 | 0.00 | 0.00 | 0.00 | 81 | 1019.8 |
| 20260906160944 | 71 | 189 | 1.7 | 3.5 | 0.00 | 0.00 | 0.00 | 81 | 1019.9 |
| 20260906160443 | 71 | 213 | 2.6 | 4.3 | 0.00 | 0.00 | 0.00 | 81 | 1019.9 |
| 20260906155942 | 70 | 39 | 2.6 | 6.1 | 0.00 | 0.00 | 0.00 | 82 | 1019.8 |
| 20260906155441 | 70 | 23 | 4.3 | 7.8 | 0.00 | 0.00 | 0.00 | 83 | 1019.8 |
| 20260906154940 | 69 | 23 | 6.1 | 7.8 | 0.00 | 0.00 | 0.00 | 84 | 1019.8 |
| 20260906154439 | 69 | 170 | 1.7 | 3.5 | 0.00 | 0.00 | 0.00 | 85 | 1019.8 |
| 20260906153925 | 69 | 210 | 7.0 | 7.8 | 0.00 | 0.00 | 0.00 | 85 | 1019.8 |
| 20260906153424 | 69 | 195 | 2.6 | 3.5 | 0.00 | 0.00 | 0.00 | 85 | 1020.0 |
| 20260906152923 | 69 | 191 | 2.6 | 7.0 | 0.00 | 0.00 | 0.00 | 85 | 1020.1 |
| 20260906152412 | 69 | 202 | 3.5 | 7.8 | 0.00 | 0.00 | 0.00 | 86 | 1020.0 |
| 20260906151911 | 69 | 202 | 3.5 | 5.2 | 0.00 | 0.00 | 0.00 | 84 | 1020.2 |
| 20260906151408 | 69 | 27 | 3.5 | 6.1 | 0.00 | 0.00 | 0.00 | 84 | 1020.2 |
| 20260906150907 | 69 | 24 | 5.2 | 7.0 | 0.00 | 0.00 | 0.00 | 85 | 1020.2 |
| 20260906150405 | 69 | 192 | 1.7 | 3.5 | 0.00 | 0.00 | 0.00 | 85 | 1020.2 |
| 20260906145851 | 69 | 205 | 4.3 | 7.8 | 0.00 | 0.00 | 0.00 | 85 | 1020.0 |
| 20260906145349 | 69 | 217 | 6.1 | 7.8 | 0.00 | 0.00 | 0.00 | 84 | 1019.8 |
| 20260906144849 | 69 | 206 | 3.5 | 5.2 | 0.00 | 0.00 | 0.00 | 84 | 1019.9 |
| 20260906144347 | 69 | 208 | 5.2 | 7.8 | 0.00 | 0.00 | 0.00 | 85 | 1019.7 |
| 20260906143847 | 69 | 214 | 3.5 | 7.0 | 0.00 | 0.00 | 0.00 | 85 | 1019.8 |
| 20260906143345 | 69 | 213 | 5.2 | 8.7 | 0.00 | 0.00 | 0.00 | 84 | 1019.8 |
| 20260906142844 | 69 | 210 | 4.3 | 7.8 | 0.00 | 0.00 | 0.00 | 85 | 1019.8 |
| 20260906142343 | 69 | 205 | 4.3 | 6.1 | 0.00 | 0.00 | 0.00 | 85 | 1019.7 |
| 20260906141842 | 69 | 201 | 4.3 | 7.0 | 0.00 | 0.00 | 0.00 | 85 | 1019.8 |
| 20260906141341 | 70 | 186 | 1.7 | 4.3 | 0.00 | 0.00 | 0.00 | 85 | 1020.0 |
| 20260906140840 | 70 | 206 | 2.6 | 4.3 | 0.00 | 0.00 | 0.00 | 84 | 1019.8 |
| 20260906140340 | 70 | 26 | 3.5 | 6.1 | 0.00 | 0.00 | 0.00 | 84 | 1019.8 |
| 20260906135838 | 70 | 57 | 2.6 | 5.2 | 0.00 | 0.00 | 0.00 | 83 | 1019.9 |
| 20260906135337 | 70 | 219 | 3.5 | 5.2 | 0.00 | 0.00 | 0.00 | 85 | 1019.8 |
| 20260906134826 | 70 | 30 | 4.3 | 6.1 | 0.00 | 0.00 | 0.00 | 85 | 1019.6 |
| 20260906134325 | 70 | 28 | 4.3 | 7.0 | 0.00 | 0.00 | 0.00 | 85 | 1019.7 |
| 20260906133825 | 69 | 29 | 3.5 | 5.2 | 0.00 | 0.00 | 0.00 | 86 | 1019.7 |
| 20260906133313 | 69 | 30 | 6.1 | 8.7 | 0.00 | 0.00 | 0.00 | 86 | 1019.6 |
| 20260906132801 | 69 | 33 | 4.3 | 7.0 | 0.00 | 0.00 | 0.00 | 86 | 1019.5 |
| 20260906132259 | 69 | 23 | 4.3 | 5.2 | 0.00 | 0.00 | 0.00 | 87 | 1019.6 |
| 20260906131758 | 69 | 21 | 5.2 | 5.2 | 0.00 | 0.00 | 0.00 | 87 | 1019.3 |
| 20260906131247 | 69 | 23 | 5.2 | 6.1 | 0.00 | 0.00 | 0.00 | 87 | 1019.4 |
| 20260906130746 | 69 | 24 | 2.6 | 6.1 | 0.00 | 0.00 | 0.00 | 87 | 1019.2 |
| 20260906130245 | 69 | 37 | 3.5 | 5.2 | 0.00 | 0.00 | 0.00 | 87 | 1019.3 |
| 20260906125744 | 69 | 105 | 1.7 | 1.7 | 0.00 | 0.00 | 0.00 | 87 | 1019.3 |
| 20260906125243 | 69 | 33 | 4.3 | 5.2 | 0.00 | 0.00 | 0.00 | 87 | 1019.3 |
| 20260906124742 | 69 | 26 | 4.3 | 5.2 | 0.00 | 0.00 | 0.00 | 87 | 1019.2 |
| 20260906124241 | 69 | 23 | 5.2 | 6.1 | 0.00 | 0.00 | 0.00 | 87 | 1019.2 |
| 20260906123740 | 69 | 27 | 2.6 | 3.5 | 0.00 | 0.00 | 0.00 | 86 | 1019.2 |
| 20260906123236 | 69 | 96 | 0.9 | 1.7 | 0.00 | 0.00 | 0.00 | 85 | 1019.2 |
| 20260906122735 | 69 | 107 | 1.7 | 1.7 | 0.00 | 0.00 | 0.00 | 85 | 1019.2 |
| 20260906122221 | 69 | 174 | 0.9 | 1.7 | 0.00 | 0.00 | 0.00 | 86 | 1019.2 |
| 20260906121708 | 69 | 188 | 1.7 | 2.6 | 0.00 | 0.00 | 0.00 | 86 | 1019.3 |
| 20260906121207 | 69 | 187 | 1.7 | 2.6 | 0.00 | 0.00 | 0.00 | 86 | 1019.2 |
| 20260906120706 | 69 | 194 | 2.6 | 2.6 | 0.00 | 0.00 | 0.00 | 86 | 1019.1 |
| 20260906120155 | 69 | 178 | 1.7 | 1.7 | 0.00 | 0.00 | 0.00 | 86 | 1019.0 |
| 20260906115653 | 69 | 193 | 2.6 | 2.6 | 0.00 | 0.00 | 0.00 | 86 | 1018.9 |
| 20260906115150 | 70 | 186 | 1.7 | 2.6 | 0.00 | 0.00 | 0.00 | 86 | 1018.9 |
| 20260906114650 | 70 | 210 | 5.2 | 7.0 | 0.00 | 0.00 | 0.00 | 85 | 1019.0 |
| 20260906114148 | 70 | 206 | 1.7 | 3.5 | 0.00 | 0.00 | 0.00 | 85 | 1019.0 |
| 20260906113647 | 70 | 208 | 4.3 | 7.0 | 0.00 | 0.00 | 0.00 | 85 | 1019.0 |
| 20260906113146 | 70 | 209 | 3.5 | 5.2 | 0.00 | 0.00 | 0.00 | 86 | 1018.9 |
| 20260906112635 | 70 | 204 | 3.5 | 4.3 | 0.00 | 0.00 | 0.00 | 85 | 1018.8 |
| 20260906112134 | 70 | 211 | 3.5 | 5.2 | 0.00 | 0.00 | 0.00 | 86 | 1018.7 |
| 20260906111633 | 70 | 210 | 3.5 | 4.3 | 0.00 | 0.00 | 0.00 | 86 | 1018.7 |
| 20260906111132 | 70 | 213 | 4.3 | 5.2 | 0.00 | 0.00 | 0.00 | 86 | 1018.7 |
| 20260906110631 | 70 | 208 | 3.5 | 5.2 | 0.00 | 0.00 | 0.00 | 86 | 1018.7 |
| 20260906110130 | 70 | 212 | 4.3 | 6.1 | 0.00 | 0.00 | 0.00 | 87 | 1018.5 |
| 20260906105629 | 70 | 211 | 2.6 | 3.5 | 0.00 | 0.00 | 0.00 | 87 | 1018.5 |
| 20260906105129 | 70 | 209 | 2.6 | 2.6 | 0.00 | 0.00 | 0.00 | 87 | 1018.6 |
| 20260906104617 | 70 | 208 | 2.6 | 2.6 | 0.00 | 0.00 | 0.00 | 87 | 1018.6 |
| 20260906104117 | 70 | 203 | 2.6 | 3.5 | 0.00 | 0.00 | 0.00 | 87 | 1018.7 |
| 20260906103616 | 70 | 209 | 1.7 | 1.7 | 0.00 | 0.00 | 0.00 | 87 | 1018.6 |
| 20260906103115 | 70 | 217 | 1.7 | 3.5 | 0.00 | 0.00 | 0.00 | 87 | 1018.5 |
| 20260906102604 | 70 | 169 | 0.9 | 1.7 | 0.00 | 0.00 | 0.00 | 87 | 1018.5 |
| 20260906102103 | 70 | 203 | 1.7 | 1.7 | 0.00 | 0.00 | 0.00 | 87 | 1018.5 |
| 20260906101600 | 70 | 205 | 1.7 | 2.6 | 0.00 | 0.00 | 0.00 | 87 | 1018.6 |
| 20260906101059 | 70 | 213 | 3.5 | 3.5 | 0.00 | 0.00 | 0.00 | 86 | 1018.5 |
| 20260906100558 | 70 | 209 | 2.6 | 3.5 | 0.00 | 0.00 | 0.00 | 86 | 1018.4 |
| 20260906100047 | 70 | 208 | 1.7 | 4.3 | 0.00 | 0.00 | 0.00 | 86 | 1018.3 |
| 20260906095546 | 70 | 207 | 2.6 | 4.3 | 0.00 | 0.00 | 0.00 | 86 | 1018.2 |
| 20260906095042 | 71 | 207 | 3.5 | 4.3 | 0.00 | 0.00 | 0.00 | 86 | 1018.0 |
| 20260906094541 | 71 | 205 | 3.5 | 4.3 | 0.00 | 0.00 | 0.00 | 85 | 1017.9 |
| 20260906094040 | 71 | 13 | 1.7 | 2.6 | 0.00 | 0.00 | 0.00 | 85 | 1017.8 |
| 20260906093539 | 71 | 194 | 1.7 | 1.7 | 0.00 | 0.00 | 0.00 | 85 | 1017.8 |
| 20260906093028 | 71 | 198 | 2.6 | 3.5 | 0.00 | 0.00 | 0.00 | 85 | 1017.7 |
| 20260906092512 | 71 | 203 | 2.6 | 3.5 | 0.00 | 0.00 | 0.00 | 85 | 1017.8 |
| 20260906092011 | 71 | 196 | 2.6 | 3.5 | 0.00 | 0.00 | 0.00 | 84 | 1017.8 |
| 20260906091510 | 71 | 141 | 1.7 | 2.6 | 0.00 | 0.00 | 0.00 | 84 | 1017.7 |
| 20260906091008 | 71 | 162 | 1.7 | 2.6 | 0.00 | 0.00 | 0.00 | 83 | 1017.7 |
| 20260906090506 | 71 | 200 | 1.7 | 2.6 | 0.00 | 0.00 | 0.00 | 83 | 1017.9 |
| 20260906090005 | 71 | 48 | 1.7 | 2.6 | 0.00 | 0.00 | 0.00 | 83 | 1017.8 |
| 20260906085453 | 71 | 139 | 1.7 | 1.7 | 0.00 | 0.00 | 0.00 | 83 | 1017.9 |
| 20260906084953 | 72 | 158 | 0.9 | 0.9 | 0.00 | 0.00 | 0.00 | 83 | 1017.8 |
| 20260906084449 | 72 | 153 | 0.9 | 1.7 | 0.00 | 0.00 | 0.00 | 83 | 1017.8 |
| 20260906083948 | 72 | 89 | 1.7 | 1.7 | 0.00 | 0.00 | 0.00 | 82 | 1017.8 |
| 20260906083447 | 72 | 125 | 1.7 | 2.6 | 0.00 | 0.00 | 0.00 | 82 | 1017.8 |
| 20260906082946 | 72 | 45 | 5.2 | 8.7 | 0.00 | 0.00 | 0.00 | 82 | 1017.7 |
| 20260906082443 | 72 | 38 | 3.5 | 6.1 | 0.00 | 0.00 | 0.00 | 82 | 1017.7 |
| 20260906081942 | 72 | 38 | 7.0 | 8.7 | 0.00 | 0.00 | 0.00 | 81 | 1017.7 |
| 20260906081441 | 72 | 24 | 7.0 | 7.8 | 0.00 | 0.00 | 0.00 | 81 | 1017.7 |
| 20260906080940 | 72 | 40 | 5.2 | 7.0 | 0.00 | 0.00 | 0.00 | 81 | 1017.7 |
| 20260906080439 | 72 | 37 | 7.8 | 8.7 | 0.00 | 0.00 | 0.00 | 81 | 1017.7 |
| 20260906075935 | 72 | 45 | 4.3 | 7.0 | 0.00 | 0.00 | 0.00 | 81 | 1017.7 |
| 20260906075433 | 72 | 37 | 5.2 | 9.6 | 0.00 | 0.00 | 0.00 | 81 | 1017.7 |
| 20260906074929 | 72 | 51 | 3.5 | 5.2 | 0.00 | 0.00 | 0.00 | 81 | 1017.7 |
| 20260906074428 | 73 | 43 | 4.3 | 6.1 | 0.00 | 0.00 | 0.00 | 81 | 1017.7 |
| 20260906073927 | 73 | 49 | 3.5 | 4.3 | 0.00 | 0.00 | 0.00 | 80 | 1017.8 |
| 20260906073426 | 73 | 54 | 1.7 | 2.6 | 0.00 | 0.00 | 0.00 | 80 | 1018.0 |
| 20260906072925 | 73 | 84 | 2.6 | 3.5 | 0.00 | 0.00 | 0.00 | 80 | 1017.9 |
| 20260906072423 | 73 | 59 | 2.6 | 3.5 | 0.00 | 0.00 | 0.00 | 80 | 1018.0 |
| 20260906071922 | 73 | 83 | 1.7 | 2.6 | 0.00 | 0.00 | 0.00 | 80 | 1017.9 |
| 20260906071421 | 73 | 47 | 2.6 | 3.5 | 0.00 | 0.00 | 0.00 | 80 | 1017.9 |
| 20260906070920 | 73 | 83 | 1.7 | 2.6 | 0.00 | 0.00 | 0.00 | 80 | 1018.0 |
| 20260906070416 | 73 | 61 | 0.9 | 1.7 | 0.00 | 0.00 | 0.00 | 80 | 1018.1 |
| 20260906065914 | 74 | 58 | 1.7 | 1.7 | 0.00 | 0.00 | 0.00 | 80 | 1018.2 |
| 20260906065414 | 74 | 60 | 2.6 | 3.5 | 0.00 | 0.00 | 0.00 | 80 | 1018.3 |
| 20260906064912 | 74 | 36 | 5.2 | 6.1 | 0.00 | 0.00 | 0.00 | 80 | 1018.2 |
| 20260906064410 | 74 | 51 | 5.2 | 7.0 | 0.00 | 0.00 | 0.00 | 80 | 1018.1 |
| 20260906063909 | 74 | 49 | 4.3 | 6.1 | 0.00 | 0.00 | 0.00 | 80 | 1018.2 |
| 20260906063356 | 74 | 39 | 4.3 | 7.8 | 0.00 | 0.00 | 0.00 | 80 | 1018.2 |
| 20260906062855 | 74 | 52 | 3.5 | 4.3 | 0.00 | 0.00 | 0.00 | 79 | 1018.2 |
| 20260906062355 | 74 | 61 | 3.5 | 5.2 | 0.00 | 0.00 | 0.00 | 79 | 1018.1 |
| 20260906061853 | 74 | 31 | 5.2 | 7.8 | 0.00 | 0.00 | 0.00 | 79 | 1018.1 |
| 20260906061352 | 74 | 40 | 6.1 | 7.8 | 0.00 | 0.00 | 0.00 | 79 | 1018.1 |
| 20260906060851 | 74 | 47 | 5.2 | 7.8 | 0.00 | 0.00 | 0.00 | 79 | 1018.3 |
| 20260906060350 | 74 | 49 | 3.5 | 7.8 | 0.00 | 0.00 | 0.00 | 79 | 1018.4 |
| 20260906055849 | 74 | 43 | 3.5 | 7.0 | 0.00 | 0.00 | 0.00 | 79 | 1018.3 |
| 20260906055338 | 74 | 55 | 3.5 | 6.1 | 0.00 | 0.00 | 0.00 | 79 | 1018.2 |
| 20260906054837 | 75 | 206 | 4.3 | 7.8 | 0.00 | 0.00 | 0.00 | 79 | 1018.2 |
| 20260906054336 | 75 | 216 | 7.0 | 9.6 | 0.00 | 0.00 | 0.00 | 78 | 1018.2 |
| 20260906053832 | 75 | 215 | 6.1 | 7.8 | 0.00 | 0.00 | 0.00 | 78 | 1018.2 |
| 20260906053321 | 75 | 216 | 7.0 | 8.7 | 0.00 | 0.00 | 0.00 | 78 | 1018.2 |
| 20260906052820 | 75 | 212 | 5.2 | 7.0 | 0.00 | 0.00 | 0.00 | 78 | 1018.1 |
| 20260906052319 | 75 | 209 | 5.2 | 7.0 | 0.00 | 0.00 | 0.00 | 77 | 1018.2 |
| 20260906051818 | 75 | 212 | 5.2 | 7.0 | 0.00 | 0.00 | 0.00 | 77 | 1018.3 |
| 20260906051315 | 75 | 212 | 5.2 | 7.8 | 0.00 | 0.00 | 0.00 | 77 | 1018.3 |
| 20260906050814 | 75 | 199 | 2.6 | 3.5 | 0.00 | 0.00 | 0.00 | 77 | 1018.4 |
| 20260906050313 | 75 | 57 | 1.7 | 3.5 | 0.00 | 0.00 | 0.00 | 77 | 1018.4 |
| 20260906045812 | 75 | 50 | 1.7 | 3.5 | 0.00 | 0.00 | 0.00 | 77 | 1018.4 |
| 20260906045311 | 75 | 205 | 3.5 | 4.3 | 0.00 | 0.00 | 0.00 | 77 | 1018.3 |
| 20260906044806 | 75 | 210 | 2.6 | 3.5 | 0.00 | 0.00 | 0.00 | 77 | 1018.3 |
| 20260906044305 | 75 | 215 | 4.3 | 7.0 | 0.00 | 0.00 | 0.00 | 77 | 1018.3 |
| 20260906043804 | 75 | 217 | 5.2 | 7.0 | 0.00 | 0.00 | 0.00 | 77 | 1018.4 |
| 20260906043303 | 75 | 217 | 6.1 | 7.0 | 0.00 | 0.00 | 0.00 | 77 | 1018.4 |
| 20260906042801 | 75 | 215 | 4.3 | 5.2 | 0.00 | 0.00 | 0.00 | 77 | 1018.5 |
| 20260906042300 | 75 | 212 | 2.6 | 3.5 | 0.00 | 0.00 | 0.00 | 77 | 1018.5 |
| 20260906041757 | 75 | 217 | 4.3 | 5.2 | 0.00 | 0.00 | 0.00 | 77 | 1018.5 |
| 20260906041256 | 75 | 215 | 5.2 | 6.1 | 0.00 | 0.00 | 0.00 | 77 | 1018.4 |
| 20260906040756 | 75 | 215 | 3.5 | 4.3 | 0.00 | 0.00 | 0.00 | 77 | 1018.4 |
| 20260906040255 | 75 | 214 | 1.7 | 2.6 | 0.00 | 0.00 | 0.00 | 77 | 1018.5 |
| 20260906035754 | 76 | 207 | 2.6 | 4.3 | 0.00 | 0.00 | 0.00 | 76 | 1018.5 |
| 20260906035250 | 76 | 199 | 1.7 | 2.6 | 0.00 | 0.00 | 0.00 | 76 | 1018.6 |
| 20260906034749 | 76 | 212 | 2.6 | 3.5 | 0.00 | 0.00 | 0.00 | 76 | 1018.6 |
| 20260906034248 | 76 | 211 | 1.7 | 1.7 | 0.00 | 0.00 | 0.00 | 76 | 1018.6 |
| 20260906033747 | 76 | 114 | 0.9 | 0.9 | 0.00 | 0.00 | 0.00 | 76 | 1018.5 |
| 20260906033246 | 76 | 180 | 0.0 | 0.9 | 0.00 | 0.00 | 0.00 | 76 | 1018.5 |
| 20260906032742 | 76 | 22 | 0.0 | 1.7 | 0.00 | 0.00 | 0.00 | 76 | 1018.6 |
| 20260906032241 | 76 | 177 | 0.0 | 0.9 | 0.00 | 0.00 | 0.00 | 76 | 1018.5 |
| 20260906031740 | 76 | 200 | 0.9 | 1.7 | 0.00 | 0.00 | 0.00 | 75 | 1018.5 |
| 20260906031236 | 76 | 204 | 0.9 | 1.7 | 0.00 | 0.00 | 0.00 | 75 | 1018.5 |
| 20260906030734 | 76 | 213 | 1.7 | 3.5 | 0.00 | 0.00 | 0.00 | 75 | 1018.6 |
| 20260906030232 | 76 | 213 | 2.6 | 3.5 | 0.00 | 0.00 | 0.00 | 75 | 1018.5 |
| 20260906025731 | 76 | 216 | 1.7 | 3.5 | 0.00 | 0.00 | 0.00 | 75 | 1018.6 |
| 20260906025230 | 76 | 212 | 2.6 | 5.2 | 0.00 | 0.00 | 0.00 | 75 | 1018.6 |
| 20260906024729 | 76 | 214 | 1.7 | 3.5 | 0.00 | 0.00 | 0.00 | 74 | 1018.6 |
| 20260906024228 | 77 | 225 | 1.7 | 5.2 | 0.00 | 0.00 | 0.00 | 74 | 1018.7 |
| 20260906023725 | 76 | 221 | 2.6 | 3.5 | 0.00 | 0.00 | 0.00 | 73 | 1018.6 |
| 20260906023225 | 76 | 218 | 4.3 | 6.1 | 0.00 | 0.00 | 0.00 | 74 | 1018.4 |
| 20260906022723 | 76 | 213 | 3.5 | 5.2 | 0.00 | 0.00 | 0.00 | 74 | 1018.2 |
| 20260906022222 | 76 | 185 | 0.9 | 2.6 | 0.00 | 0.00 | 0.00 | 73 | 1018.1 |
| 20260906021717 | 76 | 198 | 1.7 | 2.6 | 0.00 | 0.00 | 0.00 | 73 | 1018.1 |
| 20260906021216 | 76 | 206 | 2.6 | 4.3 | 0.00 | 0.00 | 0.00 | 73 | 1018.0 |
| 20260906020712 | 77 | 212 | 4.3 | 6.1 | 0.00 | 0.00 | 0.00 | 72 | 1017.9 |
| 20260906020208 | 77 | 206 | 3.5 | 7.0 | 0.00 | 0.00 | 0.00 | 72 | 1017.8 |
| 20260906015708 | 77 | 196 | 2.6 | 4.3 | 0.00 | 0.00 | 0.00 | 72 | 1017.8 |
| 20260906015206 | 77 | 206 | 3.5 | 6.1 | 0.00 | 0.00 | 0.00 | 72 | 1017.4 |
| 20260906014705 | 77 | 211 | 4.3 | 7.8 | 0.00 | 0.00 | 0.00 | 72 | 1017.2 |
| 20260906014204 | 77 | 208 | 5.2 | 9.6 | 0.00 | 0.00 | 0.00 | 72 | 1017.1 |
| 20260906013703 | 77 | 53 | 2.6 | 7.0 | 0.00 | 0.00 | 0.00 | 73 | 1016.7 |
| 20260906013152 | 77 | 190 | 2.6 | 4.3 | 0.00 | 0.00 | 0.00 | 73 | 1016.9 |
| 20260906012651 | 77 | 201 | 3.5 | 5.2 | 0.00 | 0.00 | 0.00 | 73 | 1016.9 |
| 20260906012150 | 78 | 186 | 3.5 | 4.3 | 0.00 | 0.00 | 0.00 | 73 | 1016.6 |
| 20260906011649 | 78 | 199 | 4.3 | 7.0 | 0.00 | 0.00 | 0.00 | 73 | 1016.7 |
| 20260906011147 | 78 | 187 | 3.5 | 5.2 | 0.00 | 0.00 | 0.00 | 73 | 1016.6 |
| 20260906010644 | 79 | 209 | 6.1 | 7.8 | 0.00 | 0.00 | 0.00 | 73 | 1016.6 |
| 20260906010143 | 79 | 210 | 8.7 | 11.3 | 0.00 | 0.00 | 0.00 | 72 | 1016.3 |
| 20260906005631 | 80 | 213 | 3.5 | 7.8 | 0.00 | 0.00 | 0.00 | 69 | 1016.2 |
| 20260906005130 | 80 | 208 | 4.3 | 6.1 | 0.00 | 0.00 | 0.00 | 68 | 1016.2 |
| 20260906004629 | 80 | 194 | 2.6 | 6.1 | 0.00 | 0.00 | 0.00 | 68 | 1016.1 |
| 20260906004128 | 80 | 49 | 3.5 | 5.2 | 0.00 | 0.00 | 0.00 | 67 | 1016.1 |
| 20260906003627 | 80 | 154 | 1.7 | 2.6 | 0.00 | 0.00 | 0.00 | 67 | 1015.9 |
| 20260906003126 | 81 | 130 | 2.6 | 6.1 | 0.00 | 0.00 | 0.00 | 67 | 1015.7 |
| 20260906002615 | 81 | 116 | 1.7 | 3.5 | 0.00 | 0.00 | 0.00 | 66 | 1015.7 |
| 20260906002115 | 81 | 49 | 3.5 | 6.1 | 0.00 | 0.00 | 0.00 | 66 | 1015.6 |
| 20260906001613 | 82 | 143 | 2.6 | 3.5 | 0.00 | 0.00 | 0.00 | 65 | 1015.9 |
| 20260906001113 | 82 | 26 | 3.5 | 7.0 | 0.00 | 0.00 | 0.00 | 63 | 1015.7 |
| 20260906000612 | 82 | 26 | 9.6 | 13.9 | 0.00 | 0.00 | 0.00 | 63 | 1015.7 |
| 20260906000107 | 82 | 26 | 7.8 | 11.3 | 0.00 | 0.00 | 0.00 | 63 | 1015.7 |
| 20260905235605 | 82 | 41 | 8.7 | 13.9 | 0.00 | 0.00 | 0.00 | 63 | 1015.6 |
| 20260905235102 | 82 | 31 | 7.8 | 11.3 | 0.00 | 0.00 | 0.00 | 62 | 1015.6 |
| 20260905234601 | 82 | 30 | 7.8 | 8.7 | 0.00 | 0.00 | 0.00 | 62 | 1015.7 |
| 20260905234100 | 82 | 43 | 10.4 | 14.8 | 0.00 | 0.00 | 0.00 | 63 | 1015.5 |
| 20260905233558 | 82 | 55 | 7.8 | 11.3 | 0.00 | 0.00 | 0.00 | 63 | 1015.5 |
| 20260905233047 | 82 | 42 | 7.8 | 10.4 | 0.00 | 0.00 | 0.00 | 63 | 1015.3 |
| 20260905232546 | 82 | 36 | 8.7 | 11.3 | 0.00 | 0.00 | 0.00 | 63 | 1015.2 |
| 20260905232045 | 82 | 26 | 9.6 | 17.4 | 0.00 | 0.00 | 0.00 | 62 | 1015.1 |
| 20260905231544 | 82 | 36 | 7.8 | 11.3 | 0.00 | 0.00 | 0.00 | 63 | 1015.2 |
| 20260905231043 | 82 | 23 | 6.1 | 8.7 | 0.00 | 0.00 | 0.00 | 63 | 1015.1 |
| 20260905230542 | 82 | 56 | 12.2 | 15.6 | 0.00 | 0.00 | 0.00 | 63 | 1015.1 |
| 20260905230040 | 82 | 65 | 12.2 | 15.6 | 0.00 | 0.00 | 0.00 | 63 | 1015.0 |
| 20260905225539 | 82 | 20 | 8.7 | 11.3 | 0.00 | 0.00 | 0.00 | 64 | 1014.8 |
| 20260905225038 | 82 | 41 | 9.6 | 13.0 | 0.00 | 0.00 | 0.00 | 64 | 1015.0 |
| 20260905224537 | 82 | 40 | 8.7 | 13.0 | 0.00 | 0.00 | 0.00 | 64 | 1015.0 |
| 20260905224036 | 82 | 39 | 10.4 | 13.9 | 0.00 | 0.00 | 0.00 | 64 | 1015.1 |
| 20260905223525 | 82 | 49 | 10.4 | 16.5 | 0.00 | 0.00 | 0.00 | 64 | 1015.1 |
| 20260905223014 | 82 | 31 | 7.8 | 10.4 | 0.00 | 0.00 | 0.00 | 64 | 1015.2 |
| 20260905222513 | 82 | 27 | 7.8 | 10.4 | 0.00 | 0.00 | 0.00 | 63 | 1015.2 |
| 20260905222002 | 82 | 50 | 11.3 | 15.6 | 0.00 | 0.00 | 0.00 | 63 | 1015.2 |
| 20260905221458 | 82 | 29 | 9.6 | 14.8 | 0.00 | 0.00 | 0.00 | 65 | 1015.3 |
| 20260905220954 | 82 | 50 | 6.1 | 9.6 | 0.00 | 0.00 | 0.00 | 65 | 1015.4 |
| 20260905220453 | 82 | 48 | 4.3 | 7.8 | 0.00 | 0.00 | 0.00 | 65 | 1015.3 |